Time,TemperatureF,DewpointF,PressureIn,WindDirection,WindDirectionDegrees,WindSpeedMPH,WindSpeedGustMPH,Humidity,HourlyPrecipIn,Conditions,Clouds,dailyrainin,SolarRadiationWatts/m^2,SoftwareType,DateUTC
2013-04-18 00:00:00,33.6,32.3,29.95,North,355,6.0,15.0,95,0.00,,---,0.21,0.00,VWS V14.00,2013-04-18 05:00:00,
2013-04-18 00:03:00,33.7,32.2,29.95,NNW,328,7.0,12.0,94,0.04,,---,0.01,0.00,VWS V14.00,2013-04-18 05:03:00,
2013-04-18 00:08:00,33.7,32.2,29.95,North,355,12.0,15.0,94,0.04,,---,0.01,0.00,VWS V14.00,2013-04-18 05:08:00,
2013-04-18 00:14:00,33.7,32.2,29.94,NNW,348,2.0,15.0,94,0.04,,---,0.01,0.00,VWS V14.00,2013-04-18 05:14:00,
2013-04-18 00:18:00,33.7,32.2,29.94,NNW,340,8.0,15.0,94,0.04,,---,0.02,0.00,VWS V14.00,2013-04-18 05:18:00,
2013-04-18 00:24:00,33.7,32.2,29.95,NNW,330,4.0,15.0,94,0.04,,---,0.02,0.00,VWS V14.00,2013-04-18 05:24:00,
2013-04-18 00:29:00,33.7,32.2,29.95,North,360,6.0,8.0,94,0.06,,---,0.03,0.00,VWS V14.00,2013-04-18 05:29:00,
2013-04-18 00:30:00,33.6,32.1,29.96,North,355,9.0,16.0,94,0.05,,---,0.23,0.00,VWS V14.00,2013-04-18 05:30:00,
2013-04-18 00:34:00,33.7,32.2,29.94,North,5,4.0,12.0,94,0.06,,---,0.03,0.00,VWS V14.00,2013-04-18 05:34:00,
2013-04-18 00:39:00,33.6,32.3,29.94,North,355,5.0,12.0,95,0.05,,---,0.04,0.00,VWS V14.00,2013-04-18 05:39:00,
2013-04-18 00:44:00,33.5,32.2,29.93,NNW,332,6.0,12.0,95,0.05,,---,0.04,0.00,VWS V14.00,2013-04-18 05:44:00,
2013-04-18 00:49:00,33.5,32.2,29.93,North,355,4.0,12.0,95,0.06,,---,0.05,0.00,VWS V14.00,2013-04-18 05:49:00,
2013-04-18 00:54:00,33.4,32.1,29.92,North,9,5.0,12.0,95,0.06,,---,0.05,0.00,VWS V14.00,2013-04-18 05:54:00,
2013-04-18 00:59:00,33.4,32.1,29.92,North,5,9.0,13.0,95,0.05,,---,0.05,0.00,VWS V14.00,2013-04-18 05:59:00,
2013-04-18 01:00:00,33.7,32.2,29.95,NNE,12,9.0,12.0,94,0.05,,---,0.00,0.00,VWS V14.00,2013-04-18 06:00:00,
2013-04-18 01:04:00,33.4,32.1,29.91,North,5,5.0,13.0,95,0.04,,---,0.06,0.00,VWS V14.00,2013-04-18 06:04:00,
2013-04-18 01:09:00,33.2,31.9,29.91,NNW,347,4.0,13.0,95,0.04,,---,0.06,0.00,VWS V14.00,2013-04-18 06:09:00,
2013-04-18 01:14:00,33.1,31.8,29.91,North,349,10.0,14.0,95,0.04,,---,0.06,0.00,VWS V14.00,2013-04-18 06:14:00,
2013-04-18 01:19:00,33.0,31.7,29.90,NNW,343,7.0,14.0,95,0.00,,---,0.06,0.00,VWS V14.00,2013-04-18 06:19:00,
2013-04-18 01:24:00,33.0,31.7,29.90,NNE,25,9.0,16.0,95,0.00,,---,0.06,0.00,VWS V14.00,2013-04-18 06:24:00,
2013-04-18 01:30:00,32.9,31.6,29.89,NNW,346,7.0,15.0,95,0.00,,---,0.06,0.00,VWS V14.00,2013-04-18 06:30:00,
2013-04-18 01:35:00,32.9,31.6,29.88,NNW,330,6.0,15.0,95,0.00,,---,0.06,0.00,VWS V14.00,2013-04-18 06:35:00,
2013-04-18 01:40:00,32.9,31.6,29.89,North,5,12.0,15.0,95,0.00,,---,0.06,0.00,VWS V14.00,2013-04-18 06:40:00,
2013-04-18 01:45:00,32.8,31.3,29.88,NNW,342,6.0,16.0,94,0.00,,---,0.06,0.00,VWS V14.00,2013-04-18 06:45:00,
2013-04-18 01:50:00,32.8,31.3,29.88,NNW,346,10.0,16.0,94,0.00,,---,0.06,0.00,VWS V14.00,2013-04-18 06:50:00,
2013-04-18 01:55:00,32.8,31.3,29.86,NNE,17,12.0,16.0,94,0.00,,---,0.06,0.00,VWS V14.00,2013-04-18 06:55:00,
2013-04-18 02:00:00,32.8,31.3,29.86,North,360,11.0,17.0,94,0.00,,---,0.07,0.00,VWS V14.00,2013-04-18 07:00:00,
2013-04-18 02:05:00,32.8,31.3,29.86,North,355,12.0,19.0,94,0.00,,---,0.07,0.00,VWS V14.00,2013-04-18 07:05:00,
2013-04-18 02:10:00,32.7,31.2,29.85,NNE,13,7.0,19.0,94,0.00,,---,0.07,0.00,VWS V14.00,2013-04-18 07:10:00,
2013-04-18 02:15:00,32.7,31.2,29.84,NNW,342,10.0,20.0,94,0.00,,---,0.07,0.00,VWS V14.00,2013-04-18 07:15:00,
2013-04-18 02:20:00,32.6,31.1,29.85,NW,307,7.0,20.0,94,0.00,,---,0.07,0.00,VWS V14.00,2013-04-18 07:20:00,
2013-04-18 02:26:00,32.6,31.1,29.85,North,351,8.0,20.0,94,0.00,,---,0.07,0.00,VWS V14.00,2013-04-18 07:26:00,
2013-04-18 02:30:00,33.0,31.7,29.90,North,350,11.0,16.0,95,0.00,,---,0.06,0.00,VWS V14.00,2013-04-18 07:30:00,
2013-04-18 02:31:00,32.6,31.1,29.84,North,9,16.0,16.0,94,0.00,,---,0.07,0.00,VWS V14.00,2013-04-18 07:31:00,
2013-04-18 02:36:00,32.6,31.1,29.84,North,5,11.0,17.0,94,0.00,,---,0.07,0.00,VWS V14.00,2013-04-18 07:36:00,
2013-04-18 02:41:00,32.6,31.1,29.83,NNW,344,5.0,17.0,94,0.00,,---,0.07,0.00,VWS V14.00,2013-04-18 07:41:00,
2013-04-18 02:46:00,32.6,31.1,29.84,NNE,14,15.0,17.0,94,0.00,,---,0.07,0.00,VWS V14.00,2013-04-18 07:46:00,
2013-04-18 02:51:00,32.6,31.1,29.84,NNW,340,6.0,17.0,94,0.00,,---,0.07,0.00,VWS V14.00,2013-04-18 07:51:00,
2013-04-18 02:56:00,32.6,31.1,29.84,North,360,8.0,17.0,94,0.00,,---,0.07,0.00,VWS V14.00,2013-04-18 07:56:00,
2013-04-18 03:00:00,32.8,31.3,29.86,North,360,4.0,16.0,94,0.00,,---,0.06,0.00,VWS V14.00,2013-04-18 08:00:00,
2013-04-18 03:01:00,32.6,31.1,29.85,NW,325,9.0,12.0,94,0.00,,---,0.07,0.00,VWS V14.00,2013-04-18 08:01:00,
2013-04-18 03:06:00,32.6,31.1,29.86,North,355,3.0,13.0,94,0.00,,---,0.07,0.00,VWS V14.00,2013-04-18 08:06:00,
2013-04-18 03:12:00,32.6,31.1,29.86,NNW,344,3.0,17.0,94,0.00,,---,0.07,0.00,VWS V14.00,2013-04-18 08:12:00,
2013-04-18 03:17:00,32.6,31.1,29.86,NNW,348,7.0,17.0,94,0.00,,---,0.07,0.00,VWS V14.00,2013-04-18 08:17:00,
2013-04-18 03:22:00,32.6,31.1,29.85,North,355,10.0,18.0,94,0.00,,---,0.07,0.00,VWS V14.00,2013-04-18 08:22:00,
2013-04-18 03:27:00,32.5,31.0,29.85,NE,35,13.0,18.0,94,0.00,,---,0.07,0.00,VWS V14.00,2013-04-18 08:27:00,
2013-04-18 03:30:00,32.6,31.1,29.84,NNE,19,11.0,20.0,94,0.00,,---,0.07,0.00,VWS V14.00,2013-04-18 08:30:00,
2013-04-18 03:32:00,32.5,31.0,29.85,North,5,11.0,15.0,94,0.00,,---,0.07,0.00,VWS V14.00,2013-04-18 08:32:00,
2013-04-18 03:37:00,32.5,31.0,29.85,North,355,5.0,15.0,94,0.00,,---,0.07,0.00,VWS V14.00,2013-04-18 08:37:00,
2013-04-18 03:42:00,32.5,31.0,29.85,NNW,340,4.0,15.0,94,0.00,,---,0.07,0.00,VWS V14.00,2013-04-18 08:42:00,
2013-04-18 03:47:00,32.4,30.9,29.85,NNW,336,6.0,15.0,94,0.00,,---,0.07,0.00,VWS V14.00,2013-04-18 08:47:00,
2013-04-18 03:52:00,32.4,30.9,29.84,North,5,4.0,15.0,94,0.00,,---,0.07,0.00,VWS V14.00,2013-04-18 08:52:00,
2013-04-18 03:58:00,32.4,30.9,29.84,NNW,344,3.0,5.0,94,0.00,,---,0.07,0.00,VWS V14.00,2013-04-18 08:58:00,
2013-04-18 04:00:00,32.6,31.1,29.84,NNE,23,5.0,17.0,94,0.00,,---,0.07,0.00,VWS V14.00,2013-04-18 09:00:00,
2013-04-18 04:03:00,32.3,30.8,29.83,North,11,7.0,13.0,94,0.00,,---,0.07,0.00,VWS V14.00,2013-04-18 09:03:00,
2013-04-18 04:08:00,32.3,30.8,29.84,North,350,9.0,13.0,94,0.00,,---,0.07,0.00,VWS V14.00,2013-04-18 09:08:00,
2013-04-18 04:13:00,32.3,30.8,29.84,North,355,10.0,13.0,94,0.00,,---,0.07,0.00,VWS V14.00,2013-04-18 09:13:00,
2013-04-18 04:18:00,32.3,30.8,29.84,North,360,7.0,14.0,94,0.00,,---,0.08,0.00,VWS V14.00,2013-04-18 09:18:00,
2013-04-18 04:23:00,32.2,30.7,29.84,WNW,299,6.0,14.0,94,0.00,,---,0.08,0.00,VWS V14.00,2013-04-18 09:23:00,
2013-04-18 04:28:00,32.2,30.7,29.84,NNW,344,5.0,9.0,94,0.00,,---,0.08,0.00,VWS V14.00,2013-04-18 09:28:00,
2013-04-18 04:30:00,32.5,31.0,29.85,North,5,15.0,18.0,94,0.00,,---,0.07,0.00,VWS V14.00,2013-04-18 09:30:00,
2013-04-18 04:33:00,32.1,30.6,29.84,North,360,9.0,12.0,94,0.00,,---,0.08,0.00,VWS V14.00,2013-04-18 09:33:00,
2013-04-18 04:38:00,32.1,30.6,29.84,NW,318,9.0,13.0,94,0.00,,---,0.08,0.00,VWS V14.00,2013-04-18 09:38:00,
2013-04-18 04:43:00,32.0,30.5,29.85,North,360,11.0,13.0,94,0.00,,---,0.08,0.00,VWS V14.00,2013-04-18 09:43:00,
2013-04-18 04:48:00,32.0,30.5,29.85,NNW,339,3.0,13.0,94,0.00,,---,0.08,0.00,VWS V14.00,2013-04-18 09:48:00,
2013-04-18 04:54:00,32.0,30.5,29.85,North,355,6.0,15.0,94,0.00,,---,0.08,0.00,VWS V14.00,2013-04-18 09:54:00,
2013-04-18 04:59:00,32.0,30.5,29.85,NW,306,5.0,7.0,94,0.00,,---,0.08,0.00,VWS V14.00,2013-04-18 09:59:00,
2013-04-18 05:00:00,32.4,30.9,29.84,NNW,344,5.0,15.0,94,0.00,,---,0.07,0.00,VWS V14.00,2013-04-18 10:00:00,
2013-04-18 05:04:00,31.9,30.4,29.84,NW,324,4.0,13.0,94,0.00,,---,0.08,0.00,VWS V14.00,2013-04-18 10:04:00,
2013-04-18 05:09:00,32.0,30.7,29.84,North,9,10.0,13.0,95,0.00,,---,0.08,0.00,VWS V14.00,2013-04-18 10:09:00,
2013-04-18 05:14:00,32.0,30.7,29.85,NW,326,6.0,13.0,95,0.00,,---,0.08,0.00,VWS V14.00,2013-04-18 10:14:00,
2013-04-18 05:19:00,31.9,30.6,29.85,North,355,4.0,13.0,95,0.00,,---,0.08,0.00,VWS V14.00,2013-04-18 10:19:00,
2013-04-18 05:24:00,31.9,30.4,29.83,NNW,342,4.0,13.0,94,0.00,,---,0.08,0.00,VWS V14.00,2013-04-18 10:24:00,
2013-04-18 05:29:00,31.9,30.6,29.82,NNW,344,5.0,12.0,95,0.00,,---,0.08,0.00,VWS V14.00,2013-04-18 10:29:00,
2013-04-18 05:30:00,32.2,30.7,29.84,NW,306,6.0,14.0,94,0.00,,---,0.08,0.00,VWS V14.00,2013-04-18 10:30:00,
2013-04-18 05:34:00,31.7,30.4,29.81,North,355,4.0,13.0,95,0.00,,---,0.08,0.00,VWS V14.00,2013-04-18 10:34:00,
2013-04-18 05:39:00,31.7,30.4,29.81,NNW,336,4.0,13.0,95,0.00,,---,0.08,0.00,VWS V14.00,2013-04-18 10:39:00,
2013-04-18 05:44:00,31.7,30.4,29.82,North,10,10.0,13.0,95,0.00,,---,0.08,0.00,VWS V14.00,2013-04-18 10:44:00,
2013-04-18 05:49:00,31.7,30.4,29.81,North,350,4.0,13.0,95,0.00,,---,0.08,0.00,VWS V14.00,2013-04-18 10:49:00,
2013-04-18 05:55:00,31.6,30.3,29.81,North,355,7.0,13.0,95,0.00,,---,0.08,0.00,VWS V14.00,2013-04-18 10:55:00,
2013-04-18 06:00:00,31.6,30.3,29.81,NNW,327,10.0,13.0,95,0.00,,---,0.09,0.00,VWS V14.00,2013-04-18 11:00:00,
2013-04-18 06:05:00,31.5,30.2,29.80,NNW,338,11.0,17.0,95,0.00,,---,0.09,0.00,VWS V14.00,2013-04-18 11:05:00,
2013-04-18 06:10:00,31.5,30.2,29.78,NNW,333,13.0,17.0,95,0.00,,---,0.09,0.00,VWS V14.00,2013-04-18 11:10:00,
2013-04-18 06:15:00,31.5,30.2,29.78,North,355,14.0,17.0,95,0.00,,---,0.09,0.00,VWS V14.00,2013-04-18 11:15:00,
2013-04-18 06:20:00,31.4,29.9,29.77,NW,313,6.0,20.0,94,0.00,,---,0.09,0.00,VWS V14.00,2013-04-18 11:20:00,
2013-04-18 06:25:00,31.4,29.9,29.78,NW,323,5.0,20.0,94,0.00,,---,0.09,0.00,VWS V14.00,2013-04-18 11:25:00,
2013-04-18 06:30:00,31.3,29.8,29.78,NNW,341,7.0,16.0,94,0.00,,---,0.09,0.00,VWS V14.00,2013-04-18 11:30:00,
2013-04-18 06:35:00,31.3,29.8,29.78,NNW,336,4.0,16.0,94,0.00,,---,0.09,0.00,VWS V14.00,2013-04-18 11:35:00,
2013-04-18 06:40:00,31.3,29.8,29.79,NNW,348,5.0,16.0,94,0.00,,---,0.09,0.00,VWS V14.00,2013-04-18 11:40:00,
2013-04-18 06:45:00,31.2,29.7,29.78,North,355,12.0,16.0,94,0.00,,---,0.09,0.00,VWS V14.00,2013-04-18 11:45:00,
2013-04-18 06:50:00,31.2,29.7,29.78,NNW,330,6.0,17.0,94,0.00,,---,0.09,5.00,VWS V14.00,2013-04-18 11:50:00,
2013-04-18 06:55:00,31.1,29.3,29.78,North,10,10.0,18.0,93,0.00,,---,0.09,7.00,VWS V14.00,2013-04-18 11:55:00,
2013-04-18 07:00:00,31.2,29.7,29.78,NW,323,6.0,12.0,94,0.00,,---,0.09,9.00,VWS V14.00,2013-04-18 12:00:00,
2013-04-18 07:06:00,31.1,29.3,29.78,NE,34,11.0,15.0,93,0.00,,---,0.09,11.00,VWS V14.00,2013-04-18 12:06:00,
2013-04-18 07:11:00,31.2,29.4,29.79,NNW,342,7.0,15.0,93,0.00,,---,0.09,12.00,VWS V14.00,2013-04-18 12:11:00,
2013-04-18 07:16:00,31.2,29.4,29.79,NW,323,5.0,15.0,93,0.00,,---,0.09,12.00,VWS V14.00,2013-04-18 12:16:00,
2013-04-18 07:21:00,31.2,29.4,29.77,North,5,7.0,15.0,93,0.00,,---,0.09,12.00,VWS V14.00,2013-04-18 12:21:00,
2013-04-18 07:26:00,31.1,29.3,29.76,NNW,328,3.0,16.0,93,0.00,,---,0.09,18.00,VWS V14.00,2013-04-18 12:26:00,
2013-04-18 07:30:00,31.3,29.8,29.78,NW,305,9.0,20.0,94,0.00,,---,0.09,0.00,VWS V14.00,2013-04-18 12:30:00,
2013-04-18 07:31:00,31.1,29.3,29.77,North,355,11.0,15.0,93,0.00,,---,0.09,18.00,VWS V14.00,2013-04-18 12:31:00,
2013-04-18 07:36:00,31.2,29.4,29.79,NW,326,6.0,15.0,93,0.00,,---,0.09,18.00,VWS V14.00,2013-04-18 12:36:00,
2013-04-18 07:41:00,31.2,29.4,29.79,North,5,6.0,15.0,93,0.00,,---,0.09,16.00,VWS V14.00,2013-04-18 12:41:00,
2013-04-18 07:46:00,31.2,29.4,29.79,NNW,342,9.0,15.0,93,0.00,,---,0.09,18.00,VWS V14.00,2013-04-18 12:46:00,
2013-04-18 07:51:00,31.3,29.2,29.79,NNW,333,9.0,15.0,92,0.00,,---,0.09,16.00,VWS V14.00,2013-04-18 12:51:00,
2013-04-18 07:56:00,31.2,29.1,29.79,NNW,346,9.0,15.0,92,0.00,,---,0.09,16.00,VWS V14.00,2013-04-18 12:56:00,
2013-04-18 08:00:00,31.1,29.3,29.78,NNE,17,5.0,18.0,93,0.00,,---,0.09,7.00,VWS V14.00,2013-04-18 13:00:00,
2013-04-18 08:01:00,31.3,29.2,29.78,NW,312,4.0,13.0,92,0.00,,---,0.09,18.00,VWS V14.00,2013-04-18 13:01:00,
2013-04-18 08:07:00,31.2,29.1,29.78,NNE,14,6.0,14.0,92,0.00,,---,0.09,18.00,VWS V14.00,2013-04-18 13:07:00,
2013-04-18 08:12:00,31.2,29.1,29.77,NNE,19,8.0,15.0,92,0.00,,---,0.09,18.00,VWS V14.00,2013-04-18 13:12:00,
2013-04-18 08:17:00,31.2,29.1,29.77,North,355,7.0,15.0,92,0.00,,---,0.09,21.00,VWS V14.00,2013-04-18 13:17:00,
2013-04-18 08:22:00,31.3,29.2,29.76,North,5,16.0,16.0,92,0.00,,---,0.09,21.00,VWS V14.00,2013-04-18 13:22:00,
2013-04-18 08:27:00,31.2,29.1,29.76,North,10,7.0,19.0,92,0.00,,---,0.09,21.00,VWS V14.00,2013-04-18 13:27:00,
2013-04-18 08:30:00,31.2,29.1,29.76,North,5,7.0,19.0,92,0.00,,---,0.09,23.00,VWS V14.00,2013-04-18 13:30:00,
2013-04-18 08:32:00,31.3,29.2,29.75,North,5,13.0,18.0,92,0.00,,---,0.09,35.00,VWS V14.00,2013-04-18 13:32:00,
2013-04-18 08:37:00,31.3,29.2,29.76,NNW,347,12.0,21.0,92,0.00,,---,0.09,39.00,VWS V14.00,2013-04-18 13:37:00,
2013-04-18 08:42:00,31.4,29.4,29.75,NNE,17,10.0,21.0,92,0.00,,---,0.09,44.00,VWS V14.00,2013-04-18 13:42:00,
2013-04-18 08:47:00,31.4,29.4,29.74,North,5,15.0,21.0,92,0.00,,---,0.09,47.00,VWS V14.00,2013-04-18 13:47:00,
2013-04-18 08:52:00,31.4,29.1,29.73,NNW,342,10.0,21.0,91,0.00,,---,0.09,51.00,VWS V14.00,2013-04-18 13:52:00,
2013-04-18 08:57:00,31.4,29.1,29.72,WNW,296,7.0,22.0,91,0.00,,---,0.09,53.00,VWS V14.00,2013-04-18 13:57:00,
2013-04-18 09:00:00,31.4,29.1,29.72,NW,321,12.0,22.0,91,0.00,,---,0.09,53.00,VWS V14.00,2013-04-18 14:00:00,
2013-04-18 09:02:00,31.5,29.5,29.72,NW,318,9.0,17.0,92,0.00,,---,0.09,62.00,VWS V14.00,2013-04-18 14:02:00,
2013-04-18 09:07:00,31.5,29.2,29.71,NNW,342,5.0,23.0,91,0.00,,---,0.09,70.00,VWS V14.00,2013-04-18 14:07:00,
2013-04-18 09:12:00,31.6,29.3,29.70,North,350,13.0,23.0,91,0.00,,---,0.09,100.00,VWS V14.00,2013-04-18 14:12:00,
2013-04-18 09:17:00,31.6,29.3,29.70,North,349,12.0,23.0,91,0.00,,---,0.09,127.00,VWS V14.00,2013-04-18 14:17:00,
2013-04-18 09:22:00,31.7,29.4,29.69,North,9,7.0,23.0,91,0.00,,---,0.09,72.00,VWS V14.00,2013-04-18 14:22:00,
2013-04-18 09:27:00,31.7,29.4,29.70,North,360,16.0,23.0,91,0.00,,---,0.09,69.00,VWS V14.00,2013-04-18 14:27:00,
2013-04-18 09:30:00,31.2,29.1,29.76,North,5,7.0,19.0,92,0.00,,---,0.09,23.00,VWS V14.00,2013-04-18 14:30:00,
2013-04-18 09:32:00,31.7,29.4,29.70,WNW,302,13.0,21.0,91,0.00,,---,0.09,79.00,VWS V14.00,2013-04-18 14:32:00,
2013-04-18 09:37:00,31.8,29.5,29.71,North,355,14.0,21.0,91,0.00,,---,0.09,84.00,VWS V14.00,2013-04-18 14:37:00,
2013-04-18 09:42:00,31.9,29.6,29.71,North,5,11.0,21.0,91,0.00,,---,0.09,51.00,VWS V14.00,2013-04-18 14:42:00,
2013-04-18 09:47:00,31.9,29.3,29.72,North,355,5.0,21.0,90,0.00,,---,0.09,42.00,VWS V14.00,2013-04-18 14:47:00,
2013-04-18 09:53:00,31.9,29.3,29.72,NE,52,8.0,21.0,90,0.00,,---,0.09,35.00,VWS V14.00,2013-04-18 14:53:00,
2013-04-18 09:59:00,31.9,29.3,29.72,North,350,10.0,11.0,90,0.00,,---,0.09,40.00,VWS V14.00,2013-04-18 14:59:00,
2013-04-18 10:00:00,31.4,29.1,29.72,NW,321,12.0,22.0,91,0.00,,---,0.09,53.00,VWS V14.00,2013-04-18 15:00:00,
2013-04-18 10:04:00,31.9,29.3,29.71,NNW,348,7.0,15.0,90,0.00,,---,0.09,53.00,VWS V14.00,2013-04-18 15:04:00,
2013-04-18 10:09:00,32.0,29.4,29.71,NW,321,11.0,19.0,90,0.00,,---,0.09,58.00,VWS V14.00,2013-04-18 15:09:00,
2013-04-18 10:14:00,32.0,29.4,29.69,North,350,4.0,19.0,90,0.00,,---,0.09,54.00,VWS V14.00,2013-04-18 15:14:00,
2013-04-18 10:19:00,31.9,29.3,29.69,NNW,347,9.0,19.0,90,0.00,,---,0.09,46.00,VWS V14.00,2013-04-18 15:19:00,
2013-04-18 10:24:00,31.9,29.3,29.71,NNW,348,9.0,19.0,90,0.00,,---,0.09,30.00,VWS V14.00,2013-04-18 15:24:00,
2013-04-18 10:29:00,31.9,29.3,29.70,North,10,10.0,14.0,90,0.00,,---,0.09,42.00,VWS V14.00,2013-04-18 15:29:00,
2013-04-18 10:30:00,31.7,29.4,29.70,North,360,16.0,23.0,91,0.00,,---,0.09,69.00,VWS V14.00,2013-04-18 15:30:00,
2013-04-18 10:34:00,31.9,29.3,29.71,NNE,19,6.0,14.0,90,0.00,,---,0.09,30.00,VWS V14.00,2013-04-18 15:34:00,
2013-04-18 10:39:00,31.9,29.3,29.72,North,360,5.0,14.0,90,0.00,,---,0.09,28.00,VWS V14.00,2013-04-18 15:39:00,
2013-04-18 10:45:00,31.9,29.6,29.71,NNW,344,13.0,14.0,91,0.00,,---,0.09,32.00,VWS V14.00,2013-04-18 15:45:00,
2013-04-18 10:50:00,31.8,29.5,29.71,NNW,340,3.0,15.0,91,0.00,,---,0.09,39.00,VWS V14.00,2013-04-18 15:50:00,
2013-04-18 10:55:00,31.8,29.5,29.71,NNE,24,4.0,15.0,91,0.00,,---,0.09,47.00,VWS V14.00,2013-04-18 15:55:00,
2013-04-18 11:00:00,31.8,29.5,29.71,NNW,346,5.0,12.0,91,0.00,,---,0.09,47.00,VWS V14.00,2013-04-18 16:00:00,
2013-04-18 11:05:00,31.7,29.6,29.69,North,350,11.0,13.0,92,0.00,,---,0.09,72.00,VWS V14.00,2013-04-18 16:05:00,
2013-04-18 11:10:00,31.6,29.5,29.68,North,355,7.0,14.0,92,0.00,,---,0.09,91.00,VWS V14.00,2013-04-18 16:10:00,
2013-04-18 11:15:00,31.6,29.8,29.67,NNW,348,5.0,14.0,93,0.00,,---,0.09,146.00,VWS V14.00,2013-04-18 16:15:00,
2013-04-18 11:20:00,31.7,29.9,29.67,NNW,338,6.0,14.0,93,0.00,,---,0.09,199.00,VWS V14.00,2013-04-18 16:20:00,
2013-04-18 11:25:00,31.6,30.1,29.68,North,360,2.0,14.0,94,0.00,,---,0.09,113.00,VWS V14.00,2013-04-18 16:25:00,
2013-04-18 11:30:00,31.6,30.1,29.68,NNW,344,4.0,11.0,94,0.00,,---,0.09,91.00,VWS V14.00,2013-04-18 16:30:00,
2013-04-18 11:35:00,31.5,30.0,29.68,North,360,7.0,11.0,94,0.00,,---,0.09,100.00,VWS V14.00,2013-04-18 16:35:00,
2013-04-18 11:40:00,31.6,30.1,29.69,NW,311,4.0,11.0,94,0.00,,---,0.09,65.00,VWS V14.00,2013-04-18 16:40:00,
2013-04-18 11:45:00,31.5,30.0,29.69,NNW,338,4.0,11.0,94,0.00,,---,0.09,39.00,VWS V14.00,2013-04-18 16:45:00,
2013-04-18 11:50:00,31.5,30.0,29.68,NNW,340,11.0,14.0,94,0.00,,---,0.09,56.00,VWS V14.00,2013-04-18 16:50:00,
2013-04-18 11:55:00,31.4,30.1,29.67,North,355,5.0,14.0,95,0.00,,---,0.09,70.00,VWS V14.00,2013-04-18 16:55:00,
2013-04-18 12:00:00,31.4,30.1,29.68,North,360,10.0,11.0,95,0.00,,---,0.09,56.00,VWS V14.00,2013-04-18 17:00:00,
2013-04-18 12:06:00,31.4,30.1,29.67,North,5,7.0,16.0,95,0.00,,---,0.09,63.00,VWS V14.00,2013-04-18 17:06:00,
2013-04-18 12:11:00,31.4,30.1,29.66,NNW,339,13.0,16.0,95,0.00,,---,0.09,79.00,VWS V14.00,2013-04-18 17:11:00,
2013-04-18 12:16:00,31.4,30.1,29.67,NNW,344,4.0,16.0,95,0.00,,---,0.09,53.00,VWS V14.00,2013-04-18 17:16:00,
2013-04-18 12:21:00,31.4,30.1,29.67,NNW,327,11.0,16.0,95,0.00,,---,0.09,51.00,VWS V14.00,2013-04-18 17:21:00,
2013-04-18 12:26:00,31.4,30.1,29.65,North,355,9.0,16.0,95,0.00,,---,0.09,60.00,VWS V14.00,2013-04-18 17:26:00,
2013-04-18 12:30:00,31.6,30.1,29.68,North,360,7.0,14.0,94,0.00,,---,0.09,95.00,VWS V14.00,2013-04-18 17:30:00,
2013-04-18 12:31:00,31.4,30.1,29.66,North,10,7.0,14.0,95,0.00,,---,0.09,109.00,VWS V14.00,2013-04-18 17:31:00,
2013-04-18 12:37:00,31.4,30.1,29.67,NNW,335,3.0,16.0,95,0.00,,---,0.09,53.00,VWS V14.00,2013-04-18 17:37:00,
2013-04-18 12:42:00,31.5,30.2,29.66,NNW,327,7.0,16.0,95,0.00,,---,0.09,86.00,VWS V14.00,2013-04-18 17:42:00,
2013-04-18 12:47:00,31.5,30.2,29.67,North,349,4.0,16.0,95,0.00,,---,0.09,65.00,VWS V14.00,2013-04-18 17:47:00,
2013-04-18 12:52:00,31.5,30.5,29.67,North,360,9.0,16.0,96,0.00,,---,0.09,83.00,VWS V14.00,2013-04-18 17:52:00,
2013-04-18 12:57:00,31.5,30.5,29.67,NW,318,5.0,16.0,96,0.00,,---,0.09,65.00,VWS V14.00,2013-04-18 17:57:00,
2013-04-18 13:00:00,31.4,30.1,29.68,NNE,14,7.0,14.0,95,0.00,,---,0.09,62.00,VWS V14.00,2013-04-18 18:00:00,
2013-04-18 13:02:00,31.5,30.5,29.66,NNW,344,5.0,13.0,96,0.00,,---,0.09,81.00,VWS V14.00,2013-04-18 18:02:00,
2013-04-18 13:07:00,31.5,30.5,29.66,NNW,329,5.0,14.0,96,0.00,,---,0.09,58.00,VWS V14.00,2013-04-18 18:07:00,
2013-04-18 13:12:00,31.5,30.5,29.64,WNW,300,5.0,14.0,96,0.00,,---,0.09,42.00,VWS V14.00,2013-04-18 18:12:00,
2013-04-18 13:17:00,31.4,30.1,29.63,NNW,340,3.0,18.0,95,0.00,,---,0.09,53.00,VWS V14.00,2013-04-18 18:17:00,
2013-04-18 13:22:00,31.4,30.1,29.63,North,9,12.0,18.0,95,0.00,,---,0.09,76.00,VWS V14.00,2013-04-18 18:22:00,
2013-04-18 13:27:00,31.5,30.2,29.63,NNW,329,9.0,18.0,95,0.00,,---,0.09,114.00,VWS V14.00,2013-04-18 18:27:00,
2013-04-18 13:30:00,31.4,30.1,29.65,NNE,13,9.0,16.0,95,0.00,,---,0.09,69.00,VWS V14.00,2013-04-18 18:30:00,
2013-04-18 13:32:00,31.5,30.2,29.62,NNW,330,3.0,12.0,95,0.00,,---,0.09,109.00,VWS V14.00,2013-04-18 18:32:00,
2013-04-18 13:37:00,31.5,30.2,29.62,NW,317,5.0,17.0,95,0.00,,---,0.09,98.00,VWS V14.00,2013-04-18 18:37:00,
2013-04-18 13:42:00,31.5,30.2,29.65,NW,304,5.0,17.0,95,0.00,,---,0.09,42.00,VWS V14.00,2013-04-18 18:42:00,
2013-04-18 13:47:00,31.4,30.1,29.63,North,5,5.0,17.0,95,0.00,,---,0.09,70.00,VWS V14.00,2013-04-18 18:47:00,
2013-04-18 13:52:00,31.4,30.1,29.63,NNW,331,10.0,17.0,95,0.00,,---,0.09,95.00,VWS V14.00,2013-04-18 18:52:00,
2013-04-18 13:58:00,31.4,30.4,29.64,NNW,339,5.0,9.0,96,0.00,,---,0.09,60.00,VWS V14.00,2013-04-18 18:58:00,
2013-04-18 14:00:00,31.5,30.5,29.67,NW,315,4.0,16.0,96,0.00,,---,0.09,65.00,VWS V14.00,2013-04-18 19:00:00,
2013-04-18 14:03:00,31.4,30.4,29.64,North,355,4.0,15.0,96,0.00,,---,0.09,53.00,VWS V14.00,2013-04-18 19:03:00,
2013-04-18 14:08:00,31.4,30.4,29.62,NNW,346,9.0,15.0,96,0.00,,---,0.09,54.00,VWS V14.00,2013-04-18 19:08:00,
2013-04-18 14:13:00,31.3,30.3,29.61,NNW,347,11.0,15.0,96,0.00,,---,0.09,56.00,VWS V14.00,2013-04-18 19:13:00,
2013-04-18 14:18:00,31.2,30.2,29.61,NW,304,6.0,17.0,96,0.00,,---,0.09,60.00,VWS V14.00,2013-04-18 19:18:00,
2013-04-18 14:23:00,31.2,30.2,29.60,NNW,346,6.0,17.0,96,0.00,,---,0.09,53.00,VWS V14.00,2013-04-18 19:23:00,
2013-04-18 14:28:00,31.2,30.2,29.61,NNW,329,5.0,10.0,96,0.00,,---,0.09,39.00,VWS V14.00,2013-04-18 19:28:00,
2013-04-18 14:30:00,31.5,30.2,29.63,NW,305,7.0,18.0,95,0.00,,---,0.09,114.00,VWS V14.00,2013-04-18 19:30:00,
2013-04-18 14:33:00,31.3,30.3,29.65,NW,317,5.0,10.0,96,0.00,,---,0.09,33.00,VWS V14.00,2013-04-18 19:33:00,
2013-04-18 14:38:00,31.3,30.3,29.62,NNW,328,9.0,19.0,96,0.00,,---,0.09,47.00,VWS V14.00,2013-04-18 19:38:00,
2013-04-18 14:43:00,31.2,30.2,29.61,North,355,4.0,25.0,96,0.00,,---,0.09,70.00,VWS V14.00,2013-04-18 19:43:00,
2013-04-18 14:48:00,31.2,30.2,29.60,NW,320,10.0,25.0,96,0.00,,---,0.09,67.00,VWS V14.00,2013-04-18 19:48:00,
2013-04-18 14:53:00,31.2,30.2,29.59,North,355,7.0,25.0,96,0.00,,---,0.09,54.00,VWS V14.00,2013-04-18 19:53:00,
2013-04-18 14:59:00,31.1,30.1,29.58,NNW,340,6.0,19.0,96,0.00,,---,0.09,35.00,VWS V14.00,2013-04-18 19:59:00,
2013-04-18 15:00:00,31.4,30.4,29.64,North,5,9.0,17.0,96,0.00,,---,0.09,67.00,VWS V14.00,2013-04-18 20:00:00,
2013-04-18 15:04:00,31.1,30.1,29.59,NW,315,13.0,19.0,96,0.00,,---,0.09,54.00,VWS V14.00,2013-04-18 20:04:00,
2013-04-18 15:09:00,31.2,30.2,29.59,NW,317,12.0,19.0,96,0.00,,---,0.09,81.00,VWS V14.00,2013-04-18 20:09:00,
2013-04-18 15:14:00,31.2,30.2,29.59,NNW,327,7.0,19.0,96,0.00,,---,0.09,84.00,VWS V14.00,2013-04-18 20:14:00,
2013-04-18 15:19:00,31.3,30.3,29.59,North,355,11.0,19.0,96,0.00,,---,0.09,86.00,VWS V14.00,2013-04-18 20:19:00,
2013-04-18 15:24:00,31.3,30.3,29.60,NNW,345,6.0,19.0,96,0.00,,---,0.10,81.00,VWS V14.00,2013-04-18 20:24:00,
2013-04-18 15:29:00,31.4,30.4,29.61,North,350,7.0,10.0,96,0.00,,---,0.10,69.00,VWS V14.00,2013-04-18 20:29:00,
2013-04-18 15:30:00,31.2,30.2,29.60,NNW,333,4.0,17.0,96,0.00,,---,0.09,39.00,VWS V14.00,2013-04-18 20:30:00,
2013-04-18 15:34:00,31.4,30.6,29.61,NNW,329,4.0,16.0,97,0.00,,---,0.10,58.00,VWS V14.00,2013-04-18 20:34:00,
2013-04-18 15:39:00,31.4,30.6,29.61,NW,321,9.0,16.0,97,0.00,,---,0.10,72.00,VWS V14.00,2013-04-18 20:39:00,
2013-04-18 15:44:00,31.4,30.6,29.60,NW,316,10.0,17.0,97,0.00,,---,0.10,49.00,VWS V14.00,2013-04-18 20:44:00,
2013-04-18 15:49:00,31.4,30.6,29.60,WNW,301,13.0,17.0,97,0.00,,---,0.10,40.00,VWS V14.00,2013-04-18 20:49:00,
2013-04-18 15:54:00,31.4,30.6,29.59,NW,326,3.0,17.0,97,0.00,,---,0.10,91.00,VWS V14.00,2013-04-18 20:54:00,
2013-04-18 15:59:00,31.5,30.8,29.58,NW,304,6.0,14.0,97,0.00,,---,0.10,116.00,VWS V14.00,2013-04-18 20:59:00,
2013-04-18 16:00:00,31.1,30.1,29.58,NNW,327,9.0,25.0,96,0.00,,---,0.09,35.00,VWS V14.00,2013-04-18 21:00:00,
2013-04-18 16:04:00,31.5,30.8,29.59,NW,323,8.0,16.0,97,0.00,,---,0.10,121.00,VWS V14.00,2013-04-18 21:04:00,
2013-04-18 16:09:00,31.5,30.8,29.58,NNW,338,11.0,16.0,97,0.00,,---,0.11,111.00,VWS V14.00,2013-04-18 21:09:00,
2013-04-18 16:14:00,31.5,30.8,29.58,NNW,332,12.0,16.0,97,0.00,,---,0.11,107.00,VWS V14.00,2013-04-18 21:14:00,
2013-04-18 16:19:00,31.5,30.8,29.57,NW,312,8.0,16.0,97,0.00,,---,0.11,121.00,VWS V14.00,2013-04-18 21:19:00,
2013-04-18 16:25:00,31.5,30.8,29.57,NNW,338,5.0,17.0,97,0.00,,---,0.11,77.00,VWS V14.00,2013-04-18 21:25:00,
2013-04-18 16:30:00,31.5,30.8,29.57,NW,313,13.0,13.0,97,0.00,,---,0.11,111.00,VWS V14.00,2013-04-18 21:30:00,
2013-04-18 16:35:00,31.6,30.9,29.58,NW,307,9.0,16.0,97,0.00,,---,0.11,107.00,VWS V14.00,2013-04-18 21:35:00,
2013-04-18 16:40:00,31.6,30.9,29.59,North,360,9.0,16.0,97,0.00,,---,0.11,84.00,VWS V14.00,2013-04-18 21:40:00,
2013-04-18 16:45:00,31.6,30.9,29.58,NNW,330,16.0,16.0,97,0.00,,---,0.11,111.00,VWS V14.00,2013-04-18 21:45:00,
2013-04-18 16:50:00,31.6,30.9,29.56,NW,304,11.0,18.0,97,0.00,,---,0.11,113.00,VWS V14.00,2013-04-18 21:50:00,
2013-04-18 16:55:00,31.6,30.9,29.56,NW,315,13.0,18.0,97,0.00,,---,0.11,84.00,VWS V14.00,2013-04-18 21:55:00,
2013-04-18 17:00:00,31.5,30.8,29.56,NNW,340,5.0,16.0,97,0.00,,---,0.12,81.00,VWS V14.00,2013-04-18 22:00:00,
2013-04-18 17:05:00,31.5,30.8,29.57,NNW,337,13.0,16.0,97,0.00,,---,0.12,84.00,VWS V14.00,2013-04-18 22:05:00,
2013-04-18 17:10:00,31.5,30.8,29.57,North,5,9.0,16.0,97,0.00,,---,0.12,100.00,VWS V14.00,2013-04-18 22:10:00,
2013-04-18 17:15:00,31.5,30.8,29.57,NW,317,6.0,18.0,97,0.00,,---,0.12,63.00,VWS V14.00,2013-04-18 22:15:00,
2013-04-18 17:21:00,31.5,30.8,29.55,NW,310,8.0,18.0,97,0.00,,---,0.12,65.00,VWS V14.00,2013-04-18 22:21:00,
2013-04-18 17:26:00,31.4,30.6,29.56,NNW,334,11.0,19.0,97,0.00,,---,0.12,70.00,VWS V14.00,2013-04-18 22:26:00,
2013-04-18 17:30:00,31.5,30.8,29.57,NNW,336,6.0,17.0,97,0.00,,---,0.11,69.00,VWS V14.00,2013-04-18 22:30:00,
2013-04-18 17:31:00,31.4,30.6,29.56,NNW,342,11.0,14.0,97,0.00,,---,0.12,77.00,VWS V14.00,2013-04-18 22:31:00,
2013-04-18 17:36:00,31.4,30.6,29.56,North,11,10.0,14.0,97,0.00,,---,0.12,91.00,VWS V14.00,2013-04-18 22:36:00,
2013-04-18 17:41:00,31.4,30.6,29.55,NNW,335,10.0,17.0,97,0.00,,---,0.12,100.00,VWS V14.00,2013-04-18 22:41:00,
2013-04-18 17:46:00,31.4,30.6,29.55,NNW,338,10.0,19.0,97,0.00,,---,0.12,86.00,VWS V14.00,2013-04-18 22:46:00,
2013-04-18 17:51:00,31.4,30.6,29.55,NW,309,5.0,19.0,97,0.00,,---,0.12,58.00,VWS V14.00,2013-04-18 22:51:00,
2013-04-18 17:56:00,31.4,30.6,29.55,North,10,12.0,19.0,97,0.00,,---,0.12,65.00,VWS V14.00,2013-04-18 22:56:00,
2013-04-18 18:00:00,31.6,30.9,29.56,NNW,344,6.0,18.0,97,0.00,,---,0.11,77.00,VWS V14.00,2013-04-18 23:00:00,
2013-04-18 18:01:00,31.4,30.6,29.55,NW,309,10.0,15.0,97,0.00,,---,0.12,70.00,VWS V14.00,2013-04-18 23:01:00,
2013-04-18 18:06:00,31.4,30.6,29.55,NNW,333,6.0,15.0,97,0.00,,---,0.13,49.00,VWS V14.00,2013-04-18 23:06:00,
2013-04-18 18:12:00,31.4,30.6,29.56,WNW,293,6.0,15.0,97,0.00,,---,0.13,35.00,VWS V14.00,2013-04-18 23:12:00,
2013-04-18 18:17:00,31.4,30.6,29.56,NNW,340,12.0,17.0,97,0.00,,---,0.13,30.00,VWS V14.00,2013-04-18 23:17:00,
2013-04-18 18:22:00,31.4,30.6,29.56,NNW,341,11.0,17.0,97,0.00,,---,0.13,26.00,VWS V14.00,2013-04-18 23:22:00,
2013-04-18 18:27:00,31.4,30.6,29.55,NNW,344,10.0,17.0,97,0.00,,---,0.13,30.00,VWS V14.00,2013-04-18 23:27:00,
2013-04-18 18:30:00,31.4,30.6,29.56,NW,318,6.0,19.0,97,0.00,,---,0.12,74.00,VWS V14.00,2013-04-18 23:30:00,
2013-04-18 18:32:00,31.4,30.6,29.55,NNW,347,5.0,12.0,97,0.00,,---,0.13,30.00,VWS V14.00,2013-04-18 23:32:00,
2013-04-18 18:37:00,31.4,30.6,29.55,NNW,331,6.0,20.0,97,0.00,,---,0.13,30.00,VWS V14.00,2013-04-18 23:37:00,
2013-04-18 18:42:00,31.4,30.6,29.56,NW,325,7.0,20.0,97,0.00,,---,0.13,23.00,VWS V14.00,2013-04-18 23:42:00,
2013-04-18 18:47:00,31.4,30.6,29.56,NW,311,0.0,20.0,97,0.00,,---,0.13,19.00,VWS V14.00,2013-04-18 23:47:00,
2013-04-18 18:52:00,31.4,30.6,29.56,NW,311,0.0,20.0,97,0.00,,---,0.13,21.00,VWS V14.00,2013-04-18 23:52:00,
2013-04-18 18:57:00,31.3,30.5,29.56,NW,309,0.0,0.0,97,0.00,,---,0.13,21.00,VWS V14.00,2013-04-18 23:57:00,
2013-04-18 19:00:00,31.4,30.6,29.55,North,355,9.0,19.0,97,0.00,,---,0.12,69.00,VWS V14.00,2013-04-19 00:00:00,
2013-04-18 19:03:00,31.4,30.6,29.55,North,350,0.0,0.0,97,0.00,,---,0.13,19.00,VWS V14.00,2013-04-19 00:03:00,
2013-04-18 19:08:00,31.3,30.5,29.56,North,355,0.0,0.0,97,0.00,,---,0.13,16.00,VWS V14.00,2013-04-19 00:08:00,
2013-04-18 19:13:00,31.4,30.6,29.56,NW,317,0.0,0.0,97,0.00,,---,0.13,12.00,VWS V14.00,2013-04-19 00:13:00,
2013-04-18 19:18:00,31.4,30.6,29.56,NW,316,0.0,0.0,97,0.00,,---,0.13,12.00,VWS V14.00,2013-04-19 00:18:00,
2013-04-18 19:23:00,31.4,30.6,29.57,NNW,329,0.0,0.0,97,0.00,,---,0.13,11.00,VWS V14.00,2013-04-19 00:23:00,
2013-04-18 19:28:00,31.3,30.5,29.57,NW,322,0.0,0.0,97,0.00,,---,0.13,7.00,VWS V14.00,2013-04-19 00:28:00,
2013-04-18 19:30:00,31.4,30.6,29.55,NNW,331,7.0,17.0,97,0.00,,---,0.13,30.00,VWS V14.00,2013-04-19 00:30:00,
2013-04-18 19:33:00,31.3,30.5,29.57,NNW,329,0.0,0.0,97,0.00,,---,0.13,5.00,VWS V14.00,2013-04-19 00:33:00,
2013-04-18 19:38:00,31.3,30.5,29.57,NW,321,0.0,0.0,97,0.00,,---,0.13,5.00,VWS V14.00,2013-04-19 00:38:00,
2013-04-18 19:43:00,31.3,30.3,29.57,NW,306,0.0,0.0,96,0.00,,---,0.13,0.00,VWS V14.00,2013-04-19 00:43:00,
2013-04-18 19:48:00,31.2,30.2,29.58,WNW,300,0.0,0.0,96,0.00,,---,0.14,0.00,VWS V14.00,2013-04-19 00:48:00,
2013-04-18 19:53:00,31.2,30.2,29.58,NW,317,0.0,0.0,96,0.00,,---,0.14,0.00,VWS V14.00,2013-04-19 00:53:00,
2013-04-18 19:59:00,31.2,30.2,29.58,NNE,13,0.0,0.0,96,0.00,,---,0.14,0.00,VWS V14.00,2013-04-19 00:59:00,
2013-04-18 20:00:00,31.4,30.6,29.55,NW,317,0.0,20.0,97,0.00,,---,0.13,21.00,VWS V14.00,2013-04-19 01:00:00,
2013-04-18 20:04:00,31.2,30.2,29.58,NE,37,0.0,0.0,96,0.00,,---,0.14,0.00,VWS V14.00,2013-04-19 01:04:00,
2013-04-18 20:09:00,31.2,30.2,29.57,NNW,327,0.0,0.0,96,0.00,,---,0.14,0.00,VWS V14.00,2013-04-19 01:09:00,
2013-04-18 20:14:00,31.1,30.1,29.57,NW,317,0.0,0.0,96,0.00,,---,0.14,0.00,VWS V14.00,2013-04-19 01:14:00,
2013-04-18 20:19:00,31.1,30.1,29.57,NW,308,0.0,0.0,96,0.00,,---,0.14,0.00,VWS V14.00,2013-04-19 01:19:00,
2013-04-18 20:24:00,31.1,30.1,29.57,NW,326,0.0,0.0,96,0.00,,---,0.14,0.00,VWS V14.00,2013-04-19 01:24:00,
2013-04-18 20:29:00,31.1,30.1,29.58,NNW,335,0.0,0.0,96,0.00,,---,0.14,0.00,VWS V14.00,2013-04-19 01:29:00,
2013-04-18 20:30:00,31.3,30.5,29.57,NNW,336,0.0,0.0,97,0.00,,---,0.13,9.00,VWS V14.00,2013-04-19 01:30:00,
2013-04-18 20:34:00,31.1,30.1,29.58,NW,314,0.0,0.0,96,0.00,,---,0.14,0.00,VWS V14.00,2013-04-19 01:34:00,
2013-04-18 20:39:00,31.0,30.0,29.58,NNW,338,0.0,0.0,96,0.00,,---,0.14,0.00,VWS V14.00,2013-04-19 01:39:00,
2013-04-18 20:45:00,30.9,29.9,29.58,NW,321,0.0,0.0,96,0.00,,---,0.14,0.00,VWS V14.00,2013-04-19 01:45:00,
2013-04-18 20:50:00,30.8,29.8,29.58,NW,323,0.0,0.0,96,0.00,,---,0.14,0.00,VWS V14.00,2013-04-19 01:50:00,
2013-04-18 20:55:00,30.7,29.7,29.58,WNW,301,0.0,0.0,96,0.00,,---,0.14,0.00,VWS V14.00,2013-04-19 01:55:00,
2013-04-18 21:00:00,30.7,29.7,29.58,NW,308,0.0,0.0,96,0.00,,---,0.14,0.00,VWS V14.00,2013-04-19 02:00:00,
2013-04-18 21:05:00,30.6,29.9,29.58,WNW,303,0.0,0.0,97,0.00,,---,0.14,0.00,VWS V14.00,2013-04-19 02:05:00,
2013-04-18 21:10:00,30.6,29.6,29.59,NW,312,0.0,0.0,96,0.00,,---,0.14,0.00,VWS V14.00,2013-04-19 02:10:00,
2013-04-18 21:15:00,30.6,29.6,29.59,NW,316,0.0,0.0,96,0.00,,---,0.14,0.00,VWS V14.00,2013-04-19 02:15:00,
2013-04-18 21:20:00,30.6,29.6,29.59,NW,321,0.0,0.0,96,0.00,,---,0.14,0.00,VWS V14.00,2013-04-19 02:20:00,
2013-04-18 21:25:00,30.6,29.6,29.59,NW,309,0.0,0.0,96,0.00,,---,0.14,0.00,VWS V14.00,2013-04-19 02:25:00,
2013-04-18 21:30:00,30.5,29.8,29.59,NW,322,0.0,0.0,97,0.00,,---,0.14,0.00,VWS V14.00,2013-04-19 02:30:00,
2013-04-18 21:35:00,30.5,29.8,29.59,NW,319,0.0,0.0,97,0.00,,---,0.14,0.00,VWS V14.00,2013-04-19 02:35:00,
2013-04-18 21:40:00,30.5,29.8,29.59,NNW,337,0.0,0.0,97,0.00,,---,0.14,0.00,VWS V14.00,2013-04-19 02:40:00,
2013-04-18 21:46:00,30.5,29.8,29.59,WNW,302,0.0,0.0,97,0.00,,---,0.14,0.00,VWS V14.00,2013-04-19 02:46:00,
2013-04-18 21:51:00,30.4,29.6,29.59,WNW,299,0.0,0.0,97,0.00,,---,0.14,0.00,VWS V14.00,2013-04-19 02:51:00,
2013-04-18 21:56:00,30.4,29.6,29.59,North,355,0.0,0.0,97,0.00,,---,0.14,0.00,VWS V14.00,2013-04-19 02:56:00,
2013-04-18 22:00:00,30.7,29.7,29.58,NW,326,0.0,0.0,96,0.00,,---,0.14,0.00,VWS V14.00,2013-04-19 03:00:00,
2013-04-18 22:01:00,30.5,29.8,29.58,NW,317,0.0,0.0,97,0.00,,---,0.14,0.00,VWS V14.00,2013-04-19 03:01:00,
2013-04-18 22:06:00,30.5,29.8,29.59,NW,313,0.0,0.0,97,0.00,,---,0.14,0.00,VWS V14.00,2013-04-19 03:06:00,
2013-04-18 22:11:00,30.5,29.8,29.59,NNW,333,0.0,0.0,97,0.00,,---,0.14,0.00,VWS V14.00,2013-04-19 03:11:00,
2013-04-18 22:16:00,30.5,29.8,29.58,NW,319,0.0,0.0,97,0.00,,---,0.14,0.00,VWS V14.00,2013-04-19 03:16:00,
2013-04-18 22:21:00,30.5,29.8,29.58,NW,313,0.0,0.0,97,0.00,,---,0.14,0.00,VWS V14.00,2013-04-19 03:21:00,
2013-04-18 22:26:00,30.5,29.8,29.58,NW,323,0.0,0.0,97,0.00,,---,0.14,0.00,VWS V14.00,2013-04-19 03:26:00,
2013-04-18 22:30:00,30.6,29.9,29.59,NW,310,0.0,0.0,97,0.00,,---,0.14,0.00,VWS V14.00,2013-04-19 03:30:00,
2013-04-18 22:31:00,30.5,29.8,29.58,NNW,338,0.0,0.0,97,0.00,,---,0.14,0.00,VWS V14.00,2013-04-19 03:31:00,
2013-04-18 22:37:00,30.5,29.8,29.58,WNW,294,0.0,0.0,97,0.00,,---,0.14,0.00,VWS V14.00,2013-04-19 03:37:00,
2013-04-18 22:41:00,30.5,29.8,29.57,NW,322,0.0,0.0,97,0.00,,---,0.14,0.00,VWS V14.00,2013-04-19 03:41:00,
2013-04-18 22:47:00,30.4,29.6,29.57,NW,324,0.0,0.0,97,0.00,,---,0.14,0.00,VWS V14.00,2013-04-19 03:47:00,
2013-04-18 22:52:00,30.4,29.6,29.57,NNW,327,0.0,0.0,97,0.00,,---,0.14,0.00,VWS V14.00,2013-04-19 03:52:00,
2013-04-18 22:57:00,30.4,29.6,29.57,NW,313,0.0,0.0,97,0.00,,---,0.14,0.00,VWS V14.00,2013-04-19 03:57:00,
2013-04-18 23:00:00,30.4,29.6,29.59,NNW,341,0.0,0.0,97,0.00,,---,0.14,0.00,VWS V14.00,2013-04-19 04:00:00,
2013-04-18 23:01:00,30.3,29.5,29.57,NW,306,0.0,0.0,97,0.00,,---,0.14,0.00,VWS V14.00,2013-04-19 04:01:00,
2013-04-18 23:02:00,30.3,29.5,29.56,NNW,340,0.0,0.0,97,0.00,,---,0.14,0.00,VWS V14.00,2013-04-19 04:02:00,
2013-04-18 23:08:00,30.3,29.5,29.56,NNW,344,0.0,0.0,97,0.00,,---,0.14,0.00,VWS V14.00,2013-04-19 04:08:00,
2013-04-18 23:13:00,30.3,29.5,29.56,NW,307,0.0,0.0,97,0.00,,---,0.14,0.00,VWS V14.00,2013-04-19 04:13:00,
2013-04-18 23:18:00,30.3,29.5,29.56,NNW,331,0.0,0.0,97,0.00,,---,0.14,0.00,VWS V14.00,2013-04-19 04:18:00,
2013-04-18 23:23:00,30.2,29.5,29.56,NW,315,0.0,0.0,97,0.00,,---,0.14,0.00,VWS V14.00,2013-04-19 04:23:00,
2013-04-18 23:28:00,30.2,29.5,29.56,NNW,328,0.0,0.0,97,0.00,,---,0.14,0.00,VWS V14.00,2013-04-19 04:28:00,
2013-04-18 23:30:00,30.5,29.8,29.58,NNW,344,0.0,0.0,97,0.00,,---,0.14,0.00,VWS V14.00,2013-04-19 04:30:00,
2013-04-18 23:33:00,30.2,29.5,29.56,NW,324,0.0,0.0,97,0.00,,---,0.14,0.00,VWS V14.00,2013-04-19 04:33:00,
2013-04-18 23:38:00,30.2,29.5,29.55,NW,309,0.0,0.0,97,0.00,,---,0.14,0.00,VWS V14.00,2013-04-19 04:38:00,
2013-04-18 23:43:00,30.1,29.4,29.55,North,355,0.0,0.0,97,0.00,,---,0.14,0.00,VWS V14.00,2013-04-19 04:43:00,
2013-04-18 23:48:00,30.1,29.4,29.55,NW,317,0.0,0.0,97,0.00,,---,0.14,0.00,VWS V14.00,2013-04-19 04:48:00,
2013-04-18 23:53:00,30.1,29.4,29.54,NNW,346,0.0,0.0,97,0.00,,---,0.14,0.00,VWS V14.00,2013-04-19 04:53:00,
2013-04-18 23:59:00,30.1,29.4,29.54,NNW,331,0.0,0.0,97,0.00,,---,0.00,0.00,VWS V14.00,2013-04-19 04:59:00,